STARLINK-32223 (60373 NORAD) Tracking and Keplerian Element Data

This shows tracking and keplerian element data for the satellite.

Feedback or suggestion? Click here.




ElementValue
Catalog60373
NameSTARLINK-32223
Epoch Orbit1193
Epoch Day286.83979781
Epoch Year2024
RAAN177.0251
Inclination53.1485
Eccentricity0.000759
Argument of Perigee46.3868
Mean Anonmoly313.7763
Mean Motion15.35098585
Decay Rate-0.01152942
L11 60373U 24138U 24286.83979781 -.01152942 00000+0 -36536-1 0 9990
L22 60373 53.1485 177.0251 0007590 46.3868 313.7763 15.35098585 11939



Live tracking and technical data element details for STARLINK-32223 (NORAD 60373). STARLINK-32223 can be tracked NOW for your location showing map with azimuth and elevation plus other details from your city location.







IsCatalogInMostPopularTable: catalog: 60373, numindb: 9
Update: records affected: 1



GetName: 60373 STARLINK-32223

Hit Count: updated at: Wed, 04 Dec 2024 19:45:03 GMT